[[{"header":{"parameterUnit":"m.s-1","parameterCategory":1,"la1":30.2991,"la2":30.254,"lo1":-89.0895,"lo2":-89.0444,"dy":0.0017,"dx":0.0017,"nx":28,"ny":28,"refTime":"2024-05-30T21:00:00:Z","depth":0,"parameterNumber":2,"parameterNumberName":"U-component_of_WINDS"},"data":[0,0,0,0,0,0,0,0,0,0,0,0,0,0,0,0,0,0,0,0,0,0,0,0,0,0,0,0,0,0,0,0,0,0,0,0,0,0,0,0,0,0,0,0,0,0,0,0,0,0,0,0,0,0,0,0,0,0,-1.8168,-1.8169,0,-1.8193,-1.8193,-1.8193,-1.8163,-1.8162,-1.8161,-1.816,-1.8186,-1.8188,-1.819,0,0,0,0,0,0,0,0,0,0,0,0,0,-1.8098,-1.8099,-1.8168,-1.8169,-1.8169,-1.8193,-1.8193,-1.8193,-1.8164,-1.8162,-1.8161,-1.816,-1.8186,-1.8188,-1.819,0,0,0,0,0,0,0,0,0,0,0,0,0,-1.8126,-1.81,-1.8168,-1.8157,-1.8156,-1.8193,-1.8193,-1.8193,-1.8164,-1.8162,-1.8161,-1.8159,-1.8185,-1.8188,-1.819,-1.8239,0,0,-1.8198,-1.8199,0,0,0,0,0,0,0,0,-1.8125,-1.8129,-1.8158,-1.8158,-1.8157,-1.8173,-1.8178,-1.8209,-1.8164,-1.8161,-1.816,-1.8158,-1.8183,-1.8186,-1.8194,-1.824,-1.8241,-1.8198,-1.82,-1.8201,-1.8202,0,0,0,0,0,0,0,-1.8123,-1.8127,-1.8178,-1.8159,-1.8158,-1.8151,-1.8153,-1.8183,-1.8181,-1.8161,-1.8159,-1.8162,-1.8183,-1.8192,-1.8195,-1.8242,-1.8198,-1.8201,-1.8202,-1.8203,-1.8329,-1.8331,0,0,0,0,0,0,-1.8122,-1.8126,-1.8177,-1.8179,-1.8136,-1.8154,-1.8156,-1.817,-1.8181,-1.8181,-1.8164,-1.8161,-1.8188,-1.8192,-1.8195,-1.8253,-1.8201,-1.8203,-1.8205,-1.8327,-1.8329,-1.8331,0,0,0,0,0,0,-1.812,-1.8127,-1.8176,-1.8152,-1.8158,-1.8157,-1.8172,-1.8171,-1.818,-1.8183,-1.8182,-1.8173,-1.8187,-1.8192,-1.8228,-1.8254,-1.8205,-1.8207,-1.8325,-1.8328,-1.833,-1.8369,0,0,0,0,0,0,-1.8118,-1.8126,-1.8145,-1.8152,-1.8159,-1.8209,-1.8174,-1.8173,-1.8185,-1.8181,-1.8192,-1.8192,-1.8186,-1.8225,-1.8231,-1.8256,-1.8209,-1.8323,-1.8326,-1.833,-1.8366,-1.8373,-1.8379,0,0,0,0,0,-1.8116,-1.8155,-1.8146,-1.8152,-1.8182,-1.821,-1.8214,-1.8206,-1.8187,-1.8205,-1.8207,-1.8191,-1.825,-1.8229,-1.8235,-1.8262,-1.8321,-1.8325,-1.8329,-1.8363,-1.8372,-1.8379,0,0,0,0,0,0,-1.8151,-1.8156,-1.8146,-1.8188,-1.8199,-1.8205,-1.8228,-1.8216,-1.8233,-1.8229,-1.8219,-1.8222,-1.8261,-1.8265,-1.8241,-1.831,-1.8282,-1.8288,-1.8306,-1.8314,-1.8321,-1.8319,-1.8211,0,0,0,0,0,-1.8163,-1.8185,-1.8189,-1.8226,-1.8232,-1.8229,-1.8241,-1.8234,-1.8245,-1.825,-1.8254,-1.8266,-1.8286,-1.83,-1.832,-1.8366,-1.8368,-1.8388,-1.8395,-1.84,-1.8405,-1.843,-1.8439,-1.8345,-1.8345,-1.8345,0,0,-1.8189,-1.8195,-1.821,-1.8233,-1.824,-1.8264,-1.8233,-1.8259,-1.8277,-1.8254,-1.8288,-1.8292,-1.8304,-1.8346,-1.8364,-1.8351,-1.8432,-1.8405,-1.841,-1.8412,-1.8435,-1.8444,-1.8452,-1.8347,-1.8347,-1.8347,0,0,-1.8249,-1.8255,-1.8287,-1.8295,-1.8306,-1.8304,-1.8312,-1.832,-1.8321,-1.8356,-1.8339,-1.836,-1.8396,-1.8405,-1.8415,-1.8478,-1.8464,-1.8485,-1.852,-1.8544,-1.8551,-1.8558,-1.858,-1.8588,-1.849,-1.849,-1.849,0,-1.828,-1.8314,-1.8305,-1.8332,-1.8343,-1.8323,-1.8355,-1.8363,-1.8381,-1.8389,-1.8373,-1.8418,-1.8425,-1.8468,-1.8484,-1.8492,-1.8501,-1.8483,-1.8551,-1.8557,-1.8563,-1.8584,-1.8593,-1.8492,-1.8492,-1.8492,-1.8491,0,-1.8352,-1.8376,-1.84,-1.8417,-1.843,-1.846,-1.8455,-1.847,-1.8462,-1.8462,-1.8497,-1.8505,-1.8525,-1.8535,-1.8528,-1.8578,-1.8569,-1.8552,-1.8524,-1.8575,-1.8594,-1.8602,-1.8495,-1.8495,-1.8494,-1.8493,0,0,-1.8434,-1.8445,-1.8454,-1.8461,-1.8472,-1.8491,-1.852,-1.8539,-1.8552,-1.8565,-1.8589,-1.862,-1.8604,-1.8615,-1.8609,-1.863,-1.8679,-1.8611,-1.8611,-1.8623,-1.8734,-1.8746,-1.8756,-1.867,-1.8672,-1.8673,-1.8733,0,-1.8494,-1.8543,-1.8535,-1.8582,-1.8604,-1.8585,-1.861,-1.862,-1.8621,-1.864,-1.864,-1.8662,-1.8641,-1.8647,-1.8667,-1.8669,-1.8701,-1.8665,-1.8693,-1.8694,-1.869,-1.8766,-1.8779,-1.8835,-1.8741,-1.8742,-1.8743,0,-1.857,-1.8584,-1.8634,-1.8641,-1.865,-1.8673,-1.869,-1.8708,-1.8719,-1.8718,-1.873,-1.8719,-1.8748,-1.872,-1.876,-1.8735,-1.8746,-1.8749,-1.8751,-1.8753,-1.8721,-1.877,-1.8853,-1.8862,-1.8755,-1.8754,-1.8753,0,-1.8624,-1.8657,-1.869,-1.8697,-1.8707,-1.8723,-1.8728,-1.8737,-1.8749,-1.8764,-1.8772,-1.879,-1.8801,-1.8815,-1.881,-1.879,-1.8851,-1.8823,-1.8851,-1.8851,-1.8865,-1.8864,-1.895,-1.8872,-1.8872,-1.8872,-1.8872,0,-1.8691,-1.8722,-1.8715,-1.8736,-1.877,-1.8761,-1.8795,-1.8798,-1.8806,-1.8827,-1.8812,-1.8832,-1.8825,-1.8845,-1.8841,-1.8874,-1.8879,-1.8879,-1.8878,-1.888,-1.888,-1.8887,-1.8883,-1.8874,-1.8874,-1.8873,-1.8873,0,-1.8758,-1.8755,-1.879,-1.8796,-1.8798,-1.8823,-1.8828,-1.8847,-1.8847,-1.8874,-1.8879,-1.8879,-1.8901,-1.8898,-1.8923,-1.8921,-1.8962,-1.8956,-1.8958,-1.8957,-1.8985,-1.8983,-1.9079,-1.9091,-1.9006,-1.9007,-1.9007,0,-1.8801,-1.8825,-1.8833,-1.8845,-1.8851,-1.8872,-1.8884,-1.8876,-1.8889,-1.8903,-1.8921,-1.8942,-1.8958,-1.8996,-1.8997,-1.9017,-1.9011,-1.9043,-1.9014,-1.9016,-1.9011,-1.901,-1.9012,-1.9049,-1.905,-1.9051,-1.9052,0,-1.8878,-1.8875,-1.8893,-1.8909,-1.8924,-1.8937,-1.8949,-1.896,-1.8954,-1.8969,-1.8992,-1.9004,-1.903,-1.9051,-1.9069,-1.9074,-1.9062,-1.9061,-1.9069,-1.9071,-1.9072,-1.9072,-1.8974,-1.9059,-1.9058,-1.9058,-1.9057,-1.9057,-1.8934,-1.8954,-1.8962,-1.8982,-1.899,-1.9001,-1.902,-1.9021,-1.9039,-1.9059,-1.9053,-1.9079,-1.9089,-1.9112,-1.9119,-1.9139,-1.9127,-1.9138,-1.9141,-1.9144,-1.9147,-1.9068,-1.9143,-1.9142,-1.9142,-1.9142,-1.9142,0,-1.901,-1.9015,-1.9033,-1.9049,-1.9065,-1.9051,-1.9064,-1.9078,-1.91,-1.911,-1.9127,-1.9152,-1.9173,-1.9176,-1.9196,-1.9211,-1.9206,-1.9216,-1.9215,-1.9217,-1.9157,-1.9148,-1.922,-1.922,-1.922,-1.922,-1.922,-1.922,-1.9052,-1.9084,-1.9082,-1.9118,-1.9122,-1.9146,-1.9154,-1.9164,-1.9172,-1.9202,-1.9218,-1.922,-1.9227,-1.9247,-1.9265,-1.9266,-1.9273,-1.9286,-1.9285,-1.9229,-1.9221,-1.9213,-1.9205,-1.9288,-1.9288,-1.9342,-1.9343,-1.9343]},{"header":{"parameterUnit":"m.s-1","parameterCategory":1,"la1":30.2991,"la2":30.254,"lo1":-89.0895,"lo2":-89.0444,"dy":0.0017,"dx":0.0017,"nx":28,"ny":28,"refTime":"2024-05-30T21:00:00:Z","depth":0,"parameterNumber":3,"parameterNumberName":"V-component_of_WINDS"},"data":[0,0,0,0,0,0,0,0,0,0,0,0,0,0,0,0,0,0,0,0,0,0,0,0,0,0,0,0,0,0,0,0,0,0,0,0,0,0,0,0,0,0,0,0,0,0,0,0,0,0,0,0,0,0,0,0,0,0,2.782,2.782,0,2.7852,2.7852,2.7853,2.7791,2.7789,2.7787,2.7785,2.7816,2.7818,2.7821,0,0,0,0,0,0,0,0,0,0,0,0,0,2.7702,2.7705,2.782,2.782,2.7821,2.7852,2.7852,2.7853,2.7791,2.7789,2.7786,2.7784,2.7815,2.7818,2.7821,0,0,0,0,0,0,0,0,0,0,0,0,0,2.7746,2.7706,2.782,2.7794,2.7792,2.7852,2.7852,2.7853,2.7792,2.7789,2.7786,2.7783,2.7814,2.7818,2.7822,2.7908,0,0,2.7834,2.7836,0,0,0,0,0,0,0,0,2.7743,2.775,2.7797,2.7796,2.7793,2.7814,2.7822,2.7871,2.7793,2.7792,2.7785,2.7781,2.7818,2.7821,2.7834,2.791,2.7911,2.7835,2.7837,2.7839,2.784,0,0,0,0,0,0,0,2.774,2.7748,2.7832,2.7798,2.7796,2.7779,2.7782,2.7831,2.7821,2.7791,2.7787,2.7792,2.7816,2.783,2.7834,2.7911,2.7835,2.7838,2.7841,2.7842,2.8057,2.8061,0,0,0,0,0,0,2.7741,2.7746,2.7831,2.7833,2.776,2.7784,2.7787,2.7811,2.7821,2.7819,2.7794,2.7789,2.7825,2.7829,2.7835,2.7935,2.7839,2.7843,2.7845,2.8054,2.8058,2.8062,0,0,0,0,0,0,2.7739,2.7749,2.783,2.7789,2.7798,2.7789,2.7816,2.7813,2.7827,2.7823,2.7821,2.7811,2.7822,2.7829,2.789,2.7935,2.7845,2.7848,2.805,2.8055,2.806,2.8137,0,0,0,0,0,0,2.7736,2.7749,2.7782,2.779,2.78,2.7886,2.7819,2.7816,2.7834,2.7827,2.7838,2.7836,2.7821,2.7884,2.7894,2.7939,2.7851,2.8046,2.8053,2.8058,2.813,2.8144,2.8155,0,0,0,0,0,2.7732,2.7803,2.7784,2.7795,2.7842,2.7888,2.7894,2.7875,2.7838,2.7871,2.7868,2.7836,2.7929,2.7891,2.7902,2.7949,2.8043,2.8051,2.8058,2.8125,2.8141,2.8155,0,0,0,0,0,0,2.78,2.7803,2.7783,2.7858,2.7874,2.7878,2.7919,2.7894,2.7919,2.7911,2.7886,2.7889,2.7954,2.7958,2.7915,2.8032,2.798,2.799,2.8027,2.8043,2.8055,2.8052,2.7855,0,0,0,0,0,2.7824,2.7862,2.7863,2.7929,2.7938,2.7927,2.7947,2.7931,2.7945,2.7951,2.7953,2.7968,2.8,2.8022,2.8051,2.8131,2.8131,2.8168,2.8181,2.8191,2.82,2.824,2.8256,2.8086,2.8086,2.8086,0,0,2.7873,2.788,2.7905,2.7943,2.7953,2.7992,2.7933,2.7977,2.8005,2.7958,2.8015,2.8017,2.8031,2.8102,2.8133,2.8106,2.8247,2.8201,2.8209,2.8211,2.8249,2.8265,2.828,2.8091,2.809,2.8089,0,0,2.7983,2.7993,2.8048,2.806,2.8075,2.8068,2.8081,2.8089,2.8089,2.8146,2.8111,2.8144,2.8201,2.8212,2.8225,2.8339,2.8309,2.8349,2.8414,2.8454,2.8467,2.8479,2.8518,2.8532,2.8358,2.8358,2.8358,0,2.8042,2.81,2.808,2.8126,2.8143,2.8103,2.8158,2.8169,2.8194,2.8206,2.8177,2.8246,2.8254,2.8325,2.8353,2.8365,2.8379,2.8347,2.8467,2.8479,2.8489,2.8526,2.8541,2.8363,2.8362,2.8362,2.8361,0,2.8171,2.8212,2.8255,2.828,2.8302,2.8353,2.8339,2.8364,2.8346,2.8341,2.8399,2.8406,2.8436,2.8452,2.8435,2.8521,2.8504,2.8472,2.8418,2.8511,2.8544,2.8558,2.8369,2.8368,2.8366,2.8365,0,0,2.8324,2.8337,2.8353,2.8363,2.8378,2.8408,2.8457,2.8486,2.8507,2.8525,2.8564,2.8613,2.8583,2.8598,2.8582,2.8617,2.8705,2.858,2.858,2.8601,2.8797,2.882,2.8837,2.8686,2.8689,2.8691,2.8795,0,2.8432,2.8515,2.8498,2.8579,2.8616,2.8578,2.8619,2.8632,2.8629,2.8659,2.8655,2.8689,2.8648,2.8657,2.869,2.8687,2.8743,2.8679,2.872,2.8722,2.8716,2.8855,2.8879,2.8978,2.8809,2.8811,2.8812,0,2.8568,2.8591,2.8677,2.8684,2.8699,2.8737,2.8761,2.8791,2.8804,2.8799,2.8816,2.8793,2.884,2.8788,2.8851,2.8808,2.8824,2.8825,2.8828,2.883,2.8771,2.8858,2.9009,2.9023,2.8834,2.8832,2.883,0,2.8668,2.8722,2.8779,2.8789,2.88,2.8827,2.8832,2.8843,2.8861,2.8883,2.8894,2.8921,2.8936,2.8957,2.8941,2.8905,2.9006,2.8953,2.9002,2.9003,2.9024,2.9022,2.9177,2.9037,2.9037,2.9037,2.9037,0,2.8789,2.8842,2.8824,2.8859,2.8917,2.8896,2.8954,2.8955,2.8965,2.8998,2.8967,2.9,2.8978,2.9008,2.8997,2.905,2.9057,2.9053,2.9049,2.9055,2.9055,2.9064,2.9056,2.9041,2.904,2.9039,2.9039,0,2.891,2.8901,2.896,2.8965,2.8968,2.901,2.9014,2.9046,2.9041,2.9084,2.9092,2.9084,2.9118,2.9105,2.9141,2.9133,2.92,2.9188,2.9196,2.9192,2.9241,2.9236,2.9405,2.9425,2.9274,2.9276,2.9277,0,2.8987,2.9027,2.9036,2.9057,2.9065,2.9098,2.9117,2.9098,2.9119,2.9136,2.9166,2.9197,2.9221,2.9277,2.9273,2.93,2.9288,2.9345,2.9291,2.9296,2.9286,2.9283,2.9286,2.9355,2.9357,2.9358,2.936,0,2.9124,2.9117,2.9145,2.9171,2.9194,2.9214,2.9231,2.925,2.9232,2.9256,2.9291,2.9309,2.9346,2.9377,2.9401,2.9405,2.9379,2.9377,2.9389,2.9395,2.9397,2.9394,2.9223,2.9373,2.9371,2.937,2.937,2.9369,2.9224,2.9257,2.9268,2.93,2.9311,2.9328,2.9358,2.9356,2.9384,2.9413,2.94,2.944,2.9451,2.948,2.9489,2.9519,2.9496,2.9515,2.9519,2.9523,2.9529,2.9394,2.9523,2.9523,2.9522,2.9522,2.9522,0,2.9357,2.9362,2.9392,2.9417,2.9442,2.9416,2.9433,2.9456,2.9491,2.9504,2.9528,2.9567,2.9596,2.9595,2.9622,2.9646,2.9635,2.9654,2.9651,2.9652,2.9548,2.9534,2.9663,2.9663,2.9663,2.9663,2.9663,2.9663,2.9429,2.9483,2.9478,2.9536,2.9541,2.9579,2.9591,2.9606,2.9616,2.9661,2.9685,2.9685,2.9692,2.9719,2.9745,2.9743,2.9754,2.9777,2.9772,2.9674,2.966,2.9646,2.9633,2.978,2.9781,2.9873,2.9874,2.9874]}]]